Weather in Agia Marina

Greece     35°31′11″N   23°55′47″E
temp.,
°C
wind,
m/s
gust,
m/s
humid.,
%
clouds,
%
prec.,
mm/h
press.,
hPa
HPBL,
m
27 january, wed
wed2723:00+13ssw3783100 2.8 1003704
02:00+10w101687100 11.5 10021389
05:00+9w11167684 1.8 10041645
08:00+8w12176984 2.3 10071993
11:00+9w12186466 1.0 10092183
14:00+9w14196378 2.1 10092348
17:00+8wnw13186373 1.1 10102204
20:00+7w9147167 2.6 10121557
28 january, thu
thu2823:00+7w8127590 2.0 10141354
02:00+7w7117995 4.0 10141195
05:00+7w61077100 1.4 10131121
08:00+7wsw5878100 2.0 1014897
11:00+10w6962100 0.4 10141628
14:00+10wnw685882 0.4 10141595
17:00+9nw465813 0.1 10131228
20:00+7nne22626 0.1 1015568
29 january, fri
fri2923:00+6s11620 0.0 1017249
02:00+5ssw33620 0.0 1017216
05:00+7wsw576633 0.0 1016604
08:00+9w7117767 0.3 10171187
11:00+11w8117071 0.1 10181160
14:00+12w7106768 0.1 10171223
17:00+12sw597010 0.0 1015852
20:00+12sw588447 0.1 1015409
30 january, sat
sat3023:00+12sw5887100 0.1 1014492
02:00+13sw5985100 0.1 1013545
05:00+13sw6108865 0.1 1010503
08:00+14sw6128583 0.4 1008767
11:00+15wsw101581100 0.3 10071285
14:00+16wsw9157059 0.4 10061415
17:00+15wsw7157337 0.0 10061311
20:00+13wsw6118021 0.0 1009796
31 january, sun
sun3123:00+12wsw710720 0.0 1011624
02:00+12sw58661 0.0 1011354
05:00+12sw566425 0.0 1009185
08:00+13ssw336713 0.0 100972
11:00+17ssw14604 0.0 1010316
14:00+19ssw24563 0.0 1008585
17:00+17ssw345914 0.0 1007175
20:00+14ssw45697 0.0 1007106